RH
58 53 57 69 79 87 87 80 86 92 98 100 100 100 100 100 97 95 91 88 90 97 80 67 58 41 23 18 18 15 11 9 7 6 6 6 6 6 6 6 6 5 5 5 5 5 6 6 6 7 7 8 8 9
68 67 64 70 76 95 100 99 100 100 100 100 100 100 96 99 97 96 95 89 89 88 79 70 55 32 22 18 17 16 12 9 7 7 7 7 7 7 6 7 6 6 5 5 5 6 6 6 6 6 7 7 7 8
69 70 74 77 84 95 100 100 97 100 100 100 100 98 98 97 94 90 97 86 85 83 80 66 49 26 23 21 17 15 12 10 8 7 7 8 8 8 8 7 7 7 7 7 7 6 6 6 6 7 7 7 7 8
55 66 76 80 85 92 91 95 100 100 100 100 100 100 99 98 98 97 87 87 87 83 76 64 40 24 22 26 16 16 14 11 10 7 9 8 9 9 9 8 8 8 8 9 9 10 9 8 8 9 9 10 9 9
44 52 61 72 82 88 91 93 96 100 100 100 100 100 100 100 97 80 76 89 90 82 71 51 32 26 23 26 16 16 14 13 12 9 10 10 10 11 10 11 10 10 10 10 11 12 13 11 10 9 11 11 10 8
31 39 53 59 71 76 80 84 94 100 100 100 99 90 94 90 80 76 87 87 82 78 58 39 32 27 25 22 17 16 15 14 14 11 12 10 12 14 13 14 13 14 14 13 12 12 15 16 15 14 13 11 9 10
27 31 38 47 51 60 71 77 79 83 83 83 82 84 84 78 79 90 89 80 76 58 46 36 35 23 27 17 17 16 15 15 14 12 13 11 14 15 15 16 16 17 17 16 15 12 14 16 16 15 13 12 11 11
21 30 34 37 39 43 54 64 64 67 70 76 78 75 74 71 78 77 77 70 56 47 40 38 34 22 25 18 18 17 16 15 15 14 15 14 19 19 18 17 18 20 22 21 19 18 16 15 15 16 16 14 14 12
14 17 23 30 34 38 40 45 48 51 55 55 54 60 68 79 86 65 60 46 46 39 37 42 28 22 20 20 18 18 20 17 17 17 18 17 22 22 22 21 20 19 19 19 21 23 21 19 20 18 18 17 16 16
10 13 15 17 20 24 27 30 33 35 37 41 53 68 75 64 48 46 37 35 36 36 36 42 22 25 18 21 20 20 26 26 22 21 21 22 26 27 27 26 23 21 20 21 23 23 23 23 22 22 21 18 17 17
7 10 10 12 15 16 17 21 24 27 30 33 39 45 46 44 32 28 28 31 33 31 28 32 23 23 19 22 22 25 31 28 26 24 24 26 27 29 30 28 29 27 26 27 28 26 24 21 20 20 20 17 17 18
4 6 7 8 11 15 18 22 22 22 26 30 32 29 28 24 21 24 28 32 30 16 21 26 24 20 22 22 26 29 31 30 29 28 28 30 30 34 37 36 33 33 33 31 30 28 26 25 24 23 22 21 18 18
4 4 5 6 9 12 15 19 22 21 23 23 22 22 22 17 16 24 31 27 9 10 28 22 23 19 22 24 30 33 33 30 29 28 29 34 40 43 42 40 37 35 33 31 29 28 28 27 26 26 24 22 19 17
4 4 5 5 6 8 9 12 14 14 14 14 14 12 14 13 22 26 14 6 11 24 20 19 19 22 24 27 32 36 34 32 33 33 37 40 42 42 41 37 36 33 33 34 34 32 30 27 25 22 19 16 14 12
3 4 4 5 5 6 6 7 8 8 8 8 9 10 13 14 10 7 6 11 21 18 16 20 22 26 25 27 33 36 38 38 38 40 43 43 40 40 41 41 41 40 37 35 32 30 27 24 20 17 15 13 12 12
4 4 4 4 5 5 5 5 6 7 7 9 10 10 8 7 7 9 14 16 12 13 17 20 24 26 27 28 34 38 39 44 44 44 46 44 44 44 43 42 40 38 37 36 34 32 29 27 23 23 24 21 19 16
3 4 4 4 5 5 6 6 6 7 8 8 6 6 7 8 11 13 13 11 12 16 18 22 24 26 31 34 37 38 43 50 49 48 48 47 48 47 44 42 41 40 38 34 33 33 30 26 26 27 26 22 19 17
4 5 5 5 6 6 6 6 7 6 5 6 7 8 10 11 11 11 11 12 15 17 20 21 28 34 37 42 42 42 45 49 52 52 50 49 49 46 45 44 49 55 49 40 34 33 32 30 24 18 14 13 12 11
4 4 4 4 5 5 5 5 5 5 6 7 9 10 10 11 12 12 13 16 20 22 24 30 35 37 37 43 48 46 43 48 49 48 46 44 45 52 60 56 51 41 33 31 32 30 25 18 14 13 15 15 12 10
3 3 4 4 4 4 5 6 8 10 11 10 9 9 11 11 12 14 17 21 22 25 29 29 27 29 34 43 50 50 48 47 48 53 61 62 59 53 49 46 39 33 29 27 26 22 20 20 14 17 18 16 14 13
4 4 4 4 6 7 8 8 9 9 10 12 13 13 12 14 16 18 20 18 19 23 26 28 36 42 45 50 49 48 55 63 66 59 54 48 40 41 38 34 28 22 18 18 16 13 16 17 18 19 16 16 15 14
6 6 6 7 7 7 8 8 8 8 10 12 14 16 16 16 17 18 18 22 29 34 40 41 44 44 46 50 51 50 49 50 49 47 47 46 41 32 26 20 14 13 14 13 14 16 17 15 18 17 18 18 18 15
8 8 9 9 9 9 9 10 13 13 14 13 15 17 20 22 23 23 30 38 44 46 48 47 47 47 47 45 46 47 46 46 46 45 39 30 23 17 14 13 13 14 14 15 16 16 13 13 15 17 17 16 17 16
9 10 12 11 12 13 12 13 14 15 18 20 22 24 27 29 30 30 32 33 37 39 43 46 48 50 48 45 44 40 38 36 31 23 20 18 16 15 13 13 12 12 12 12 11 11 10 11 12 13 13 13 13 13
14 16 17 17 18 21 23 24 28 30 34 33 32 33 34 34 36 37 40 43 44 44 46 46 45 43 40 34 29 25 24 22 19 16 15 14 13 13 12 12 12 12 12 12 13 14 14 13 13 13 12 11 10 11
9 10 12 14 16 18 18 21 24 28 29 32 34 35 39 43 45 48 51 53 55 54 52 47 38 32 29 27 25 25 26 26 23 20 19 18 18 17 16 14 13 12 12 11 11 12 12 13 12 11 11 10 10 11
10 10 12 12 13 14 14 16 18 19 18 19 22 28 30 29 33 37 41 40 33 29 32 36 38 39 38 36 34 33 32 30 28 26 23 21 20 18 17 15 14 13 13 12 12 11 10 10 10 10 9 9 9 9
10 11 11 11 12 14 14 14 14 14 16 18 20 22 24 26 28 27 29 40 44 44 48 51 50 46 42 38 34 30 25 22 19 17 15 13 11 10 9 8 8 8 7 7 6 6 6 6 6 6 6 6 6 6
12 12 12 12 13 14 15 16 18 19 19 22 26 29 33 39 44 50 52 56 54 53 50 46 40 32 25 20 16 13 11 10 9 8 7 7 6 6 6 5 5 5 4 4 4 4 4 4 4 4 4 3 3 3
23 27 26 26 27 29 30 34 35 39 46 46 49 53 57 61 58 56 54 49 44 37 31 26 21 18 15 13 11 10 8 7 7 6 5 5 4 4 4 4 4 4 4 4 3 3 3 3 3 3 3 3 2 2
40 42 44 43 43 41 45 48 52 54 54 57 59 57 52 49 48 44 41 38 34 30 24 18 14 12 10 9 8 6 5 5 5 4 4 4 4 4 3 3 3 3 3 2 2 2 2 2 2 2 2 2 2 2
40 44 46 50 51 52 52 52 51 51 54 55 51 48 46 44 40 36 36 31 24 17 14 11 10 8 8 7 6 5 5 4 4 4 4 3 3 3 3 3 2 2 2 2 2 2 2 2 2 2 2 2 2 2
47 50 52 54 55 56 58 55 49 48 50 52 49 43 38 36 34 27 26 24 19 14 11 10 8 8 7 6 5 4 4 4 4 4 3 3 3 3 3 3 2 2 2 2 2 2 2 2 2 2 2 2 2 2
Wind_Speed
58 60 62 62 61 62 63 62 62 62 63 60 62 65 64 63 63 62 62 58 54 53 57 57 60 60 56 51 45 41 39 33 28 23 17 16 15 14 13 13 14 14 16 18 18 20 22 25 30 33 37 39 43 46
58 59 60 60 61 61 61 63 62 61 61 61 62 61 62 59 60 59 56 51 48 50 55 57 60 57 52 48 41 34 35 29 24 19 16 14 12 12 12 13 12 13 13 15 16 17 20 22 27 30 33 35 38 40
60 59 60 60 61 62 62 64 63 60 59 60 61 59 59 59 56 52 50 49 49 51 54 57 58 53 49 44 39 31 30 25 21 19 14 11 10 10 11 12 11 11 11 11 12 14 17 18 21 24 26 25 28 30
64 61 59 60 61 62 62 61 61 62 60 59 60 59 58 55 51 49 47 47 52 54 54 56 54 50 44 40 36 26 26 21 20 17 12 10 9 10 11 9 9 10 10 11 11 10 13 15 17 19 19 23 27 31
68 65 63 60 60 60 60 61 61 61 58 55 57 56 52 50 50 48 46 49 54 56 56 52 51 48 41 36 32 24 23 19 18 14 11 10 8 8 9 9 10 11 12 13 15 14 12 15 18 20 21 22 24 27
71 69 67 64 62 59 58 58 58 58 57 57 56 52 50 51 50 49 49 52 55 57 54 50 49 48 35 34 27 22 22 18 17 14 12 13 9 9 10 10 10 11 13 15 15 16 15 13 13 17 18 19 19 19
73 72 71 69 67 65 63 62 60 59 57 56 55 54 55 54 51 52 55 54 56 54 52 49 48 45 32 30 24 21 19 18 15 14 13 12 8 8 11 12 13 14 15 14 14 15 16 17 16 15 17 18 18 20
73 74 73 72 71 69 67 66 64 62 61 61 61 59 56 54 55 58 56 55 54 52 50 47 48 37 30 26 21 19 18 18 13 15 13 12 8 10 12 11 13 15 16 16 15 15 15 15 15 16 18 19 20 20
68 71 73 73 72 71 69 69 68 66 65 64 61 57 55 57 63 56 56 52 52 51 45 43 45 29 29 22 18 17 14 16 14 14 12 11 11 12 12 12 12 14 14 14 16 14 14 13 12 13 14 15 15 17
60 64 67 68 69 69 68 67 66 65 62 59 57 58 60 64 57 55 50 48 50 48 40 39 40 28 24 19 18 15 12 15 13 13 13 10 10 11 10 9 12 11 12 11 11 13 14 14 14 14 15 15 15 16
54 58 60 59 61 61 60 59 60 60 58 55 56 60 62 61 54 48 45 45 43 44 38 40 32 29 21 18 17 13 14 15 14 14 15 12 10 12 12 12 11 14 14 13 11 12 14 15 16 17 17 17 16 17
50 52 52 52 53 54 54 56 58 56 55 56 61 60 57 51 42 39 38 38 43 46 34 37 29 26 21 19 16 13 14 15 15 16 15 13 12 13 13 13 13 15 16 17 16 17 16 16 17 17 18 18 18 18
42 43 44 45 47 49 50 52 54 54 54 56 53 50 46 39 31 33 37 43 46 20 33 33 29 24 22 21 17 16 17 20 20 19 16 15 15 16 16 16 17 17 18 18 17 17 17 17 19 20 21 22 23 23
37 40 41 44 45 47 47 49 50 50 49 46 44 40 38 30 34 42 46 36 10 27 34 28 28 24 24 21 20 19 21 23 22 19 18 18 18 19 19 19 18 18 17 17 19 21 21 22 24 26 26 27 26 26
33 35 37 38 39 40 41 41 43 41 39 37 33 33 37 40 42 35 25 18 31 33 26 28 26 26 27 23 21 21 23 22 21 20 20 21 21 19 18 19 20 21 22 23 23 24 26 27 27 28 28 27 26 26
29 30 32 34 35 36 36 35 33 33 32 32 34 37 37 31 25 21 24 34 32 26 27 27 27 28 26 24 22 22 22 22 21 21 22 22 21 21 21 22 22 23 24 25 26 27 28 28 28 27 27 28 29 30
25 27 27 27 25 26 28 29 29 28 30 33 33 25 22 21 23 30 33 30 27 27 28 28 28 26 23 22 22 23 23 24 24 23 22 23 23 24 25 26 26 27 28 30 30 29 29 28 28 28 28 28 28 28
28 28 28 29 30 29 29 29 31 33 31 24 22 21 21 27 29 27 27 24 24 25 26 24 22 23 21 21 23 23 25 25 24 24 24 25 26 26 26 26 27 29 30 29 29 28 27 26 27 27 25 25 25 25
30 31 31 31 31 32 31 28 24 21 22 23 26 29 30 27 26 24 23 24 25 26 25 24 23 25 25 23 23 24 24 23 23 25 26 27 27 25 24 27 30 31 30 30 30 31 29 27 27 27 26 26 27 26
25 27 28 27 26 26 26 26 25 26 29 31 30 28 27 26 24 23 24 26 26 25 25 26 25 24 25 25 25 24 24 25 26 26 26 26 25 27 29 31 32 33 33 33 34 32 31 32 32 27 25 25 24 24
24 25 26 28 29 30 32 34 35 35 31 28 27 25 22 22 23 24 25 25 23 20 19 17 18 21 23 24 24 24 23 24 24 24 25 27 28 31 32 33 35 35 33 32 31 31 30 33 29 29 30 29 28 26
26 28 30 31 32 33 33 31 29 29 27 24 23 22 22 21 21 20 20 18 16 13 13 15 19 21 22 23 23 22 21 21 22 24 27 30 32 35 35 33 31 29 29 29 28 30 33 32 32 33 32 30 29 28
31 30 30 30 29 28 27 25 24 22 23 23 23 21 20 18 16 15 14 14 14 14 14 14 15 16 16 17 18 19 22 24 26 28 31 33 32 31 30 30 29 29 28 29 30 32 33 34 34 35 34 33 34 33
27 31 30 27 26 23 22 21 19 19 18 19 20 18 17 16 16 14 14 14 14 13 13 14 14 16 17 19 21 23 25 26 27 28 28 28 30 30 30 29 29 29 30 30 32 34 35 35 36 36 37 36 36 35
25 24 24 23 23 23 21 20 20 19 18 17 17 16 15 14 13 13 13 12 13 13 14 15 16 18 19 21 22 23 24 25 26 28 28 29 29 29 30 30 31 32 32 32 33 34 35 36 37 38 39 39 39 38
22 23 23 22 22 21 19 19 19 18 16 16 16 14 13 13 13 12 12 12 13 15 16 18 18 18 19 20 22 23 25 26 27 28 29 30 31 31 31 32 33 33 33 34 35 35 36 36 37 38 39 41 41 42
18 18 19 19 19 18 17 16 17 17 16 15 16 16 16 16 16 16 16 16 17 16 15 16 17 19 21 23 25 26 27 28 30 31 31 32 32 33 33 34 34 35 35 36 37 37 38 38 39 40 40 41 41 42
16 17 18 18 18 17 17 18 17 16 15 14 15 15 15 14 14 14 13 13 14 16 17 18 20 22 24 25 27 29 31 32 33 34 35 35 36 36 36 36 37 38 38 39 39 39 40 40 40 41 41 42 42 43
17 17 17 18 18 18 17 16 16 16 16 15 14 13 12 11 12 12 12 13 15 18 21 23 26 27 28 29 30 31 32 33 34 34 34 34 34 35 35 36 36 36 37 37 38 38 38 38 38 38 38 39 39 40
12 12 13 14 15 15 15 16 14 14 13 11 10 9 8 9 11 13 16 18 20 23 24 26 27 28 29 31 31 32 33 33 33 34 34 34 34 34 34 35 35 35 35 36 36 36 37 37 36 37 37 36 36 36
14 14 13 12 12 12 12 11 10 8 7 6 8 10 11 13 15 18 19 21 23 25 27 28 28 29 30 31 32 32 32 32 33 33 33 33 33 33 33 33 33 33 33 33 33 33 33 33 34 34 34 34 34 34
14 13 13 12 11 10 9 9 8 8 10 12 13 15 16 17 19 20 22 25 26 26 27 28 29 30 31 32 32 31 31 31 31 31 30 29 29 30 30 30 30 30 30 30 30 30 30 31 31 31 31 31 31 32
13 12 12 12 12 12 12 13 14 15 15 16 18 19 19 20 23 25 26 27 28 28 30 31 32 32 31 32 32 31 30 30 29 28 27 28 28 28 28 28 28 28 28 28 28 28 29 29 29 30 30 30 30 31
Wind_Direction
228 227 227 227 229 231 233 236 238 241 244 246 247 250 252 256 260 265 270 273 278 282 285 292 298 300 302 306 310 309 302 303 300 294 290 284 275 274 270 261 256 244 236 232 228 222 221 222 224 228 228 228 229 230
228 228 228 229 229 230 234 236 238 240 242 243 246 249 253 257 262 267 270 274 277 282 289 295 298 300 304 310 308 306 299 301 294 284 281 281 278 271 261 253 246 238 231 230 227 218 216 218 220 225 226 228 230 231
226 226 227 227 228 229 233 235 237 240 242 244 247 253 254 258 261 265 269 273 280 286 292 297 299 299 306 311 304 304 296 296 287 274 276 272 263 262 253 245 232 225 217 218 222 224 220 215 218 222 227 230 232 234
227 226 226 227 228 230 232 234 237 240 243 246 247 251 256 258 261 264 268 277 283 288 293 297 297 300 305 308 298 297 290 286 280 272 269 254 247 242 242 233 217 211 201 197 192 206 216 214 211 210 211 214 216 223
227 227 227 227 228 229 231 233 234 239 241 242 245 249 251 255 259 264 271 279 284 289 292 295 296 299 305 299 292 287 280 275 271 266 253 230 217 230 228 219 211 208 197 191 186 180 188 201 205 210 210 214 216 221
230 229 229 229 229 230 230 232 233 237 239 241 243 246 251 256 261 268 275 279 284 288 292 293 296 296 301 288 283 276 270 263 264 256 238 218 205 222 222 208 207 195 197 202 196 186 181 193 200 206 212 221 223 226
229 230 230 231 232 232 233 234 234 236 238 242 246 249 253 258 265 271 274 279 283 285 288 291 292 290 292 280 276 267 261 256 260 246 230 227 202 217 214 207 205 201 200 199 202 197 191 194 204 205 210 216 220 224
227 229 231 232 234 234 235 236 238 240 242 244 247 251 255 262 267 270 274 278 280 283 286 288 285 289 279 272 272 262 254 250 254 233 227 216 192 215 215 213 207 204 203 203 204 200 202 203 200 202 208 212 215 222
222 224 227 230 233 235 237 238 240 242 244 246 248 254 260 265 265 270 272 274 277 280 282 282 278 281 270 268 261 250 249 255 254 232 218 210 199 221 222 227 225 224 223 220 217 221 221 217 218 216 219 218 219 224
220 222 224 227 229 232 234 236 239 241 244 248 253 257 260 261 264 265 269 273 275 275 273 271 273 271 260 255 246 235 233 250 253 241 217 207 205 216 224 234 238 242 240 244 243 233 231 229 230 231 233 228 224 227
215 219 223 223 226 229 231 235 239 241 245 249 253 254 255 257 260 266 269 271 271 267 260 261 266 255 247 240 230 224 229 238 245 242 222 218 217 219 224 232 233 229 233 237 239 233 234 236 236 234 234 233 230 230
213 216 219 221 223 226 230 233 238 241 243 245 247 249 252 257 260 263 267 265 259 252 252 253 248 242 236 228 218 221 233 236 230 222 218 210 216 223 227 228 231 226 227 227 233 237 237 238 243 246 247 245 241 237
208 211 214 216 217 220 224 228 233 236 239 241 244 247 250 251 252 254 253 248 247 252 246 239 237 229 223 216 212 218 223 222 223 216 209 211 214 220 223 227 230 235 235 238 242 247 250 251 252 250 248 244 242 239
200 203 205 208 211 214 218 222 226 230 234 237 240 241 243 241 244 241 234 237 235 235 232 227 224 219 217 209 208 213 216 218 217 215 215 220 223 224 230 236 243 247 247 246 245 245 246 245 245 246 248 248 246 243
194 197 201 204 207 210 214 217 221 224 228 230 232 234 233 229 230 235 239 232 225 226 221 216 214 213 214 208 209 213 214 220 222 222 226 233 236 240 244 248 249 247 247 247 247 248 249 250 253 255 258 261 263 264
187 191 194 196 199 202 206 211 214 216 217 219 221 223 225 227 227 221 210 215 218 213 210 210 212 214 214 211 208 214 215 222 226 227 231 238 242 245 246 247 250 253 257 259 260 261 263 265 268 270 270 268 266 263
175 177 179 183 186 190 193 199 201 203 206 211 216 217 216 211 201 202 209 212 209 205 206 208 210 212 211 213 215 216 217 223 231 236 239 242 246 249 250 252 255 258 259 260 263 266 268 271 271 271 269 269 267 266
162 165 168 169 173 178 182 185 190 196 198 195 195 197 194 195 200 204 206 204 201 203 206 205 203 206 206 210 219 219 221 226 230 238 245 249 251 254 256 256 256 256 259 264 267 269 273 276 276 274 272 272 272 272
162 164 166 169 170 172 176 181 180 178 179 179 178 182 188 189 194 197 197 195 196 197 199 198 203 208 205 206 215 222 226 229 235 241 246 250 252 254 254 256 259 261 264 268 268 269 270 268 264 266 265 265 266 267
154 157 159 160 160 158 157 154 157 160 171 179 182 182 184 187 187 187 190 193 195 197 199 206 212 213 208 210 218 224 228 232 238 244 249 252 254 255 256 260 264 267 268 266 265 265 260 257 260 256 254 255 260 264
147 149 150 150 149 152 157 163 169 171 171 170 178 184 181 178 181 185 190 195 200 206 210 213 210 210 211 215 222 227 232 238 242 249 254 257 255 259 263 268 271 271 269 263 260 259 257 256 249 250 255 258 261 261
139 144 149 153 158 162 167 168 173 172 168 169 170 175 175 175 178 185 192 195 200 207 215 215 216 219 220 222 226 231 239 246 251 255 259 263 266 269 272 272 271 269 267 262 258 257 254 252 251 254 257 259 260 261
137 140 145 151 158 166 165 164 164 163 163 163 164 162 162 168 175 182 187 187 191 196 202 208 217 225 231 235 239 244 249 255 261 267 270 272 272 272 272 270 267 263 258 258 258 256 257 258 257 259 261 263 263 265
142 143 149 152 157 157 162 163 162 158 154 152 159 163 164 170 175 182 187 192 198 205 216 223 230 237 246 254 260 265 269 272 273 274 274 274 271 269 268 266 264 263 264 264 263 264 265 263 263 264 265 266 268 269
140 144 148 156 157 159 164 162 162 160 158 160 163 164 165 170 180 185 190 203 214 224 237 247 256 264 267 270 270 270 270 270 269 270 271 271 271 271 269 268 268 268 267 267 267 267 267 268 269 269 269 268 269 270
143 148 153 158 161 165 166 167 172 175 175 179 184 188 194 201 207 216 227 237 245 251 260 263 263 260 260 262 265 268 272 274 275 276 277 278 279 278 277 276 275 273 272 272 272 271 271 270 270 269 268 268 268 269
140 144 149 157 163 169 172 172 178 183 184 186 191 197 205 212 220 227 234 243 250 253 256 263 268 272 276 278 281 282 284 285 285 284 283 283 282 281 280 279 279 278 277 276 276 275 274 273 272 271 271 271 271 271
141 146 153 152 153 158 165 170 174 176 178 182 189 193 202 210 218 226 233 242 255 266 273 280 286 288 290 290 289 289 288 287 286 285 284 284 283 283 282 281 280 280 279 278 277 277 277 276 275 274 274 273 272 273
141 144 146 149 154 155 157 158 162 169 175 180 184 191 200 214 228 242 255 269 280 287 291 293 293 294 293 293 292 292 291 289 288 288 288 287 286 285 284 283 282 281 281 280 279 279 278 277 277 277 276 276 275 275
147 151 155 159 162 166 167 172 174 180 182 191 202 216 232 245 261 273 283 288 292 294 296 298 299 299 298 297 295 294 293 293 293 292 290 290 289 288 286 286 285 284 282 282 282 282 283 283 283 282 282 283 282 282
172 169 169 170 172 175 179 183 189 192 201 223 242 255 266 273 282 289 294 297 298 298 298 299 299 299 298 297 297 296 295 295 294 294 293 293 292 291 289 288 287 287 287 287 287 287 286 286 285 285 285 285 284 284
189 190 192 194 196 202 216 224 232 250 256 261 268 275 279 283 291 294 299 301 302 304 305 307 308 307 305 304 302 302 301 300 299 299 298 297 295 292 291 291 290 290 290 289 290 289 289 288 287 287 286 286 285 285
216 220 223 230 236 242 249 253 259 263 269 278 283 287 291 295 298 303 307 308 309 310 311 312 311 310 309 308 307 307 306 306 305 303 301 299 297 295 295 294 293 292 292 291 290 290 289 289 290 290 290 290 289 289